Date String (YYYY-MM-DD hh:mm:ss) UTC,Instrument flags,absolute air pressure of the measurement (hPa),sample flow rate (lpm),inlet stack bypass flow (lpm),air temperature of the measurement (°C),ambient temperature measured by the external sensor (°C),aerosol sample conditioner tube jacket temperature (°C),OPC LED temperature (°C),internal box temperature (°C),relative humidity of the measurement (%),span deviation,mass concentration of particles derived from Lorenz-Mie calculation of OPC scattering (μg/m³),mass concentration of particles derived from Lorenz-Mie calculation of OPC scattering (μg/m³),mass concentration of particles derived from Lorenz-Mie calculation of OPC scattering (μg/m³)
DateTimeUTC,F1_M11,P_M11,Q1_M11,Q2_M11,T1_M11,T2_M11,T3_M11,T4_M11,T5_M11,U1_M11,ZSPAN_M11,X0_M11,X2_M11,X1_M11
2023-10-08 04:00:00,SystemResetWarning,0835.2,4.99,000.00,028.5,026.9,000.0,037.1,030.1,13.9,0000.0,0008.21,0003.37,0002.83
2023-10-08 04:01:00,SystemResetWarning,0835.3,4.99,000.00,028.5,027.0,000.0,037.1,030.2,13.9,0000.0,0008.23,0003.39,0002.83
2023-10-08 04:02:00,SystemResetWarning,0835.3,5.00,000.00,028.6,027.1,000.0,037.0,030.2,13.9,0000.0,0008.19,0003.36,0002.82
2023-10-08 04:03:00,SystemResetWarning,0835.3,5.01,000.00,028.6,027.1,000.0,037.0,030.2,13.9,0000.0,0007.98,0003.33,0002.82
2023-10-08 04:04:00,SystemResetWarning,0835.3,5.01,000.00,028.6,027.1,000.0,037.1,030.2,13.8,0000.0,0007.38,0003.28,0002.82
2023-10-08 04:05:00,SystemResetWarning,0835.3,5.00,000.00,028.6,027.2,000.0,037.1,030.2,13.8,0000.0,0007.83,0003.28,0002.82
2023-10-08 04:06:00,SystemResetWarning,0835.2,5.00,000.00,028.6,027.2,000.0,037.1,030.2,13.8,0000.0,0008.56,0003.30,0002.83
2023-10-08 04:07:00,SystemResetWarning,0835.3,5.00,000.00,028.6,027.2,000.0,037.1,030.3,13.8,0000.0,0009.15,0003.34,0002.82
2023-10-08 04:08:00,SystemResetWarning,0835.2,5.00,000.00,028.6,027.3,000.0,037.1,030.3,13.8,0000.0,0009.16,0003.35,0002.83
2023-10-08 04:09:00,SystemResetWarning,0835.2,5.00,000.00,028.6,027.3,000.0,037.1,030.3,13.8,0000.0,0009.16,0003.36,0002.84
2023-10-08 04:10:00,SystemResetWarning,0835.2,5.00,000.00,028.7,027.3,000.0,037.1,030.3,13.8,0000.0,0009.41,0003.39,0002.86
2023-10-08 04:11:00,SystemResetWarning,0835.2,5.00,000.00,028.7,027.3,000.0,037.1,030.3,13.8,0000.0,0009.29,0003.39,0002.85
2023-10-08 04:12:00,SystemResetWarning,0835.2,5.00,000.00,028.7,027.3,000.0,037.1,030.3,13.8,0000.0,0009.30,0003.39,0002.83
2023-10-08 04:13:00,SystemResetWarning,0835.2,5.00,000.00,028.7,027.3,000.0,037.1,030.3,13.8,0000.0,0009.08,0003.41,0002.86
2023-10-08 04:14:00,SystemResetWarning,0835.2,4.99,000.00,028.7,027.4,000.0,037.1,030.3,13.8,0000.0,0008.82,0003.42,0002.86
2023-10-08 04:15:00,SystemResetWarning,0835.2,5.00,000.00,028.7,027.4,000.0,037.1,030.3,13.8,0000.0,0009.39,0003.44,0002.87
2023-10-08 04:16:00,SystemResetWarning,0835.2,4.99,000.00,028.7,027.4,000.0,037.1,030.4,13.8,0000.0,0009.28,0003.49,0002.89
2023-10-08 04:17:00,SystemResetWarning,0835.2,5.00,000.00,028.7,027.4,000.0,037.1,030.4,13.8,0000.0,0008.86,0003.53,0002.91
2023-10-08 04:18:00,SystemResetWarning,0835.2,5.00,000.00,028.8,027.4,000.0,037.2,030.4,13.8,0000.0,0009.12,0003.55,0002.93
2023-10-08 04:19:00,SystemResetWarning,0835.2,5.00,000.00,028.8,027.4,000.0,037.2,030.4,13.7,0000.0,0009.26,0003.57,0002.96
2023-10-08 04:20:00,SystemResetWarning,0835.2,4.99,000.00,028.8,027.4,000.0,037.2,030.4,13.7,0000.0,0009.29,0003.57,0002.96
2023-10-08 04:21:00,SystemResetWarning,0835.2,5.00,000.00,028.8,027.4,000.0,037.2,030.4,13.7,0000.0,0009.11,0003.55,0002.96
2023-10-08 04:22:00,SystemResetWarning,0835.2,5.00,000.00,028.8,027.4,000.0,037.2,030.4,13.7,0000.0,0008.97,0003.57,0002.97
2023-10-08 04:23:00,SystemResetWarning,0835.2,5.00,000.00,028.8,027.4,000.0,037.2,030.4,13.7,0000.0,0008.87,0003.57,0002.99
2023-10-08 04:24:00,SystemResetWarning,0835.2,5.00,000.00,028.8,027.4,000.0,037.2,030.5,13.7,0000.0,0009.19,0003.55,0002.98
2023-10-08 04:25:00,SystemResetWarning,0835.3,5.00,000.00,028.8,027.5,000.0,037.2,030.4,13.7,0000.0,0010.31,0003.54,0002.98
2023-10-08 04:26:00,SystemResetWarning,0835.3,5.00,000.00,028.8,027.5,000.0,037.2,030.4,13.7,0000.0,0010.33,0003.56,0002.99
2023-10-08 04:27:00,SystemResetWarning,0835.3,5.00,000.00,028.8,027.5,000.0,037.2,030.4,13.7,0000.0,0010.52,0003.54,0002.98
2023-10-08 04:28:00,SystemResetWarning,0835.3,5.00,000.00,028.8,027.5,000.0,037.2,030.4,13.7,0000.0,0010.77,0003.51,0002.98
2023-10-08 04:29:00,SystemResetWarning,0835.3,5.00,000.00,028.9,027.5,000.0,037.3,030.5,13.7,0000.0,0010.26,0003.47,0002.97
2023-10-08 04:30:00,SystemResetWarning,0835.2,5.00,000.00,028.9,027.5,000.0,037.3,030.5,13.7,0000.0,0009.95,0003.44,0002.97
2023-10-08 04:31:00,SystemResetWarning,0835.2,5.00,000.00,028.9,027.5,000.0,037.3,030.5,13.7,0000.0,0010.15,0003.46,0002.97
2023-10-08 04:32:00,SystemResetWarning,0835.4,5.00,000.00,028.9,027.5,000.0,037.3,030.5,13.7,0000.0,0010.16,0003.46,0002.98
2023-10-08 04:33:00,SystemResetWarning,0835.2,5.00,000.00,028.9,027.5,000.0,037.3,030.5,13.7,0000.0,0010.27,0003.44,0002.98
2023-10-08 04:34:00,SystemResetWarning,0835.2,5.00,000.00,028.9,027.5,000.0,037.3,030.5,13.7,0000.0,0010.45,0003.47,0002.99
2023-10-08 04:35:00,SystemResetWarning,0835.2,5.00,000.00,028.9,027.5,000.0,037.3,030.5,13.7,0000.0,0010.04,0003.48,0003.01
2023-10-08 04:36:00,SystemResetWarning,0835.2,5.01,000.00,028.9,027.5,000.0,037.3,030.5,13.7,0000.0,0009.01,0003.50,0003.02
2023-10-08 04:37:00,SystemResetWarning,0835.2,5.00,000.00,028.9,027.5,000.0,037.3,030.5,13.7,0000.0,0008.71,0003.50,0003.05
2023-10-08 04:38:00,SystemResetWarning,0835.2,5.00,000.00,028.9,027.5,000.0,037.3,030.5,13.7,0000.0,0008.13,0003.51,0003.06
2023-10-08 04:39:00,SystemResetWarning,0835.2,5.00,000.00,028.9,027.5,000.0,037.3,030.5,13.6,0000.0,0007.96,0003.55,0003.07
2023-10-08 04:40:00,SystemResetWarning,0835.3,5.00,000.00,028.9,027.5,000.0,037.3,030.5,13.6,0000.0,0007.85,0003.58,0003.08
2023-10-08 04:41:00,SystemResetWarning,0835.3,5.00,000.00,028.9,027.5,000.0,037.3,030.5,13.6,0000.0,0008.48,0003.60,0003.08
2023-10-08 04:42:00,SystemResetWarning,0835.2,5.00,000.00,028.9,027.5,000.0,037.3,030.5,13.6,0000.0,0008.76,0003.57,0003.08
2023-10-08 04:43:00,SystemResetWarning,0835.3,5.00,000.00,028.9,027.5,000.0,037.3,030.5,13.6,0000.0,0008.88,0003.57,0003.08
2023-10-08 04:44:00,SystemResetWarning,0835.3,5.00,000.00,028.9,027.5,000.0,037.3,030.5,13.6,0000.0,0008.92,0003.58,0003.08
2023-10-08 04:45:00,SystemResetWarning,0835.3,5.00,000.00,028.9,027.5,000.0,037.3,030.5,13.6,0000.0,0008.72,0003.57,0003.09
2023-10-08 04:46:00,SystemResetWarning,0835.3,5.00,000.00,028.9,027.5,000.0,037.3,030.5,13.6,0000.0,0009.03,0003.59,0003.10
2023-10-08 04:47:00,SystemResetWarning,0835.3,5.00,000.00,028.9,027.5,000.0,037.3,030.5,13.6,0000.0,0009.36,0003.61,0003.11
2023-10-08 04:48:00,SystemResetWarning,0835.3,5.00,000.00,028.9,027.5,000.0,037.4,030.6,13.6,0000.0,0009.47,0003.62,0003.10
2023-10-08 04:49:00,SystemResetWarning,0835.3,5.00,000.00,028.9,027.5,000.0,037.4,030.6,13.6,0000.0,0009.56,0003.62,0003.10
2023-10-08 04:50:00,SystemResetWarning,0835.3,5.00,000.00,028.9,027.5,000.0,037.4,030.6,13.6,0000.0,0010.27,0003.58,0003.10
2023-10-08 04:51:00,SystemResetWarning,0835.3,5.00,000.00,028.9,027.6,000.0,037.4,030.6,13.6,0000.0,0010.52,0003.54,0003.11
2023-10-08 04:52:00,SystemResetWarning,0835.3,5.00,000.00,029.0,027.6,000.0,037.4,030.6,13.6,0000.0,0010.17,0003.56,0003.11
2023-10-08 04:53:00,SystemResetWarning,0835.3,5.00,000.00,029.0,027.6,000.0,037.4,030.6,13.6,0000.0,0009.43,0003.61,0003.12
2023-10-08 04:54:00,SystemResetWarning,0835.2,5.00,000.00,029.0,027.6,000.0,037.4,030.6,13.6,0000.0,0009.37,0003.64,0003.12
2023-10-08 04:55:00,SystemResetWarning,0835.3,5.00,000.00,029.0,027.6,000.0,037.4,030.6,13.6,0000.0,0009.26,0003.66,0003.13
2023-10-08 04:56:00,SystemResetWarning,0835.3,5.00,000.00,029.0,027.5,000.0,037.4,030.6,13.6,0000.0,0009.44,0003.67,0003.13
2023-10-08 04:57:00,SystemResetWarning,0835.3,5.00,000.00,029.0,027.6,000.0,037.4,030.6,13.6,0000.0,0009.49,0003.71,0003.14
2023-10-08 04:58:00,SystemResetWarning,0835.3,5.00,000.00,029.0,027.5,000.0,037.4,030.6,13.6,0000.0,0009.18,0003.75,0003.13
2023-10-08 04:59:00,SystemResetWarning,0835.3,5.00,000.00,029.0,027.5,000.0,037.4,030.6,13.6,0000.0,0009.85,0003.78,0003.14
